FW7071 Weather Reports


Display with metric or nautical units.
time (UTC)temp
F
wind
direction
speed
MPH
gust
MPH
rain 1hr
in
rain 24hr
in
rain mn
in
humidity
%
barometer
mb
20260504194803 72 244 5.0 8.0 0.00 0.00 0.00 42 1011.4
20260504194259 72 276 5.0 7.0 0.00 0.00 0.00 41 1011.5
20260504193755 73 259 8.0 10.0 0.00 0.00 0.00 40 1011.4
20260504193252 73 198 6.0 7.0 0.00 0.00 0.00 42 1011.8
20260504192751 72 249 4.0 5.0 0.00 0.00 0.00 42 1011.6
20260504192248 72 233 5.0 8.0 0.00 0.00 0.00 41 1011.6
20260504191747 72 61 5.0 7.0 0.00 0.00 0.00 41 1011.7
20260504191243 72 154 4.0 6.0 0.00 0.00 0.00 42 1011.8
20260504190739 71 137 3.0 7.0 0.00 0.00 0.00 44 1011.9
20260504190236 72 199 3.0 3.0 0.00 0.00 0.00 42 1012.0
20260504185732 71 144 1.0 1.0 0.00 0.00 0.00 43 1012.0
20260504185229 72 306 10.0 14.0 0.00 0.00 0.00 42 1012.1
20260504184725 73 256 2.0 2.0 0.00 0.00 0.00 42 1012.2
20260504184221 71 264 3.0 3.0 0.00 0.00 0.00 45 1012.2
20260504183717 71 239 11.0 15.0 0.00 0.00 0.00 42 1012.2
20260504183214 70 271 6.0 7.0 0.00 0.00 0.00 42 1012.5
20260504182712 70 274 5.0 6.0 0.00 0.00 0.00 42 1012.4
20260504182209 71 222 7.0 9.0 0.00 0.00 0.00 42 1012.4
20260504181707 70 306 11.0 14.0 0.00 0.00 0.00 42 1012.4
20260504181204 70 298 10.0 13.0 0.00 0.00 0.00 42 1012.6
20260504180703 70 245 5.0 7.0 0.00 0.00 0.00 43 1012.6
20260504180201 70 257 7.0 9.0 0.00 0.00 0.00 43 1012.7
20260504175658 70 244 6.0 8.0 0.00 0.00 0.00 42 1012.9
20260504175155 70 225 2.0 3.0 0.00 0.00 0.00 44 1012.8
20260504174653 69 294 3.0 6.0 0.00 0.00 0.00 45 1013.0
20260504174150 69 268 3.0 5.0 0.00 0.00 0.00 45 1013.0
20260504173647 70 230 6.0 8.0 0.00 0.00 0.00 44 1013.1
20260504173144 69 309 3.0 5.0 0.00 0.00 0.00 42 1013.3
20260504172641 69 211 3.0 5.0 0.00 0.00 0.00 44 1013.1
20260504172137 69 255 7.0 9.0 0.00 0.00 0.00 42 1013.4
20260504171633 68 166 4.0 6.0 0.00 0.00 0.00 42 1013.6
20260504171131 69 213 5.0 8.0 0.00 0.00 0.00 44 1013.3
20260504170627 69 223 1.0 2.0 0.00 0.00 0.00 43 1013.5
20260504170125 69 243 5.0 6.0 0.00 0.00 0.00 43 1013.6
20260504151010 65 217 3.0 8.0 0.00 0.00 0.00 44 1014.9
20260504150507 65 304 6.0 7.0 0.00 0.00 0.00 43 1014.8
20260504140927 62 229 3.0 5.0 0.00 0.00 0.00 54 1015.0
20260504140424 61 230 4.0 6.0 0.00 0.00 0.00 54 1015.1
20260504130349 59 208 2.0 3.0 0.00 0.00 0.00 64 1015.6
20260504120312 52 196 3.0 3.0 0.00 0.00 0.00 65 1015.8
20260504110236 47 234 2.0 6.0 0.00 0.00 0.00 64 1015.8
20260504100159 46 103 0.0 2.0 0.00 0.00 0.00 67 1015.6
20260504090122 40 0 0.0 0.0 0.00 0.00 0.00 80 1015.7
20260504081552 41 44 0.0 0.0 0.00 0.00 0.00 78 1016.0
20260504081048 42 33 0.0 0.0 0.00 0.00 0.00 77 1015.8
20260504080545 42 47 0.0 0.0 0.00 0.00 0.00 74 1015.9
20260504050358 50 291 1.0 1.0 0.00 0.00 0.00 55 1015.8
20260504045855 50 245 1.0 2.0 0.00 0.00 0.00 56 1015.7
20260504045350 50 279 1.0 1.0 0.00 0.00 0.00 55 1015.8
20260504044847 50 235 2.0 3.0 0.00 0.00 0.00 55 1015.7
20260504044344 50 239 1.0 2.0 0.00 0.00 0.00 55 1015.6
20260504043842 50 233 1.0 1.0 0.00 0.00 0.00 55 1015.7
20260504043338 50 299 2.0 3.0 0.00 0.00 0.00 56 1015.7
20260504042836 50 241 4.0 6.0 0.00 0.00 0.00 55 1015.7
20260504042332 50 271 3.0 3.0 0.00 0.00 0.00 56 1015.5
20260504041828 50 220 3.0 3.0 0.00 0.00 0.00 55 1015.4
20260504041324 50 228 3.0 3.0 0.00 0.00 0.00 55 1015.5
20260504040821 50 240 2.0 3.0 0.00 0.00 0.00 55 1015.4
20260504040319 51 205 3.0 3.0 0.00 0.00 0.00 55 1015.3
20260504035814 51 236 1.0 2.0 0.00 0.00 0.00 55 1015.5
20260504035312 51 239 3.0 3.0 0.00 0.00 0.00 55 1015.3
20260504034809 51 230 3.0 3.0 0.00 0.00 0.00 55 1015.0
20260504034307 51 234 2.0 2.0 0.00 0.00 0.00 55 1015.1
20260504033803 51 238 2.0 2.0 0.00 0.00 0.00 55 1015.2
20260504033301 51 240 3.0 5.0 0.00 0.00 0.00 55 1015.4
20260504032758 51 218 2.0 2.0 0.00 0.00 0.00 55 1015.1
20260504032255 51 224 2.0 2.0 0.00 0.00 0.00 54 1015.3
20260504031751 51 225 2.0 2.0 0.00 0.00 0.00 53 1015.2
20260504031249 51 261 1.0 2.0 0.00 0.00 0.00 54 1014.9
20260504030744 52 240 4.0 5.0 0.00 0.00 0.00 53 1015.1
20260504030242 52 235 2.0 2.0 0.00 0.00 0.00 53 1015.0
20260504025738 52 243 3.0 5.0 0.00 0.00 0.00 52 1015.0
20260504025235 52 189 1.0 3.0 0.00 0.00 0.00 52 1014.8
20260504024732 52 217 0.0 1.0 0.00 0.00 0.00 52 1015.0
20260504024229 52 206 3.0 3.0 0.00 0.00 0.00 52 1015.0
20260504023726 51 222 3.0 3.0 0.00 0.00 0.00 53 1015.0
20260504023222 52 242 1.0 1.0 0.00 0.00 0.00 53 1015.2
20260504022718 52 248 3.0 5.0 0.00 0.00 0.00 52 1015.1
20260504022214 52 247 2.0 2.0 0.00 0.00 0.00 52 1015.2
20260504021712 52 269 3.0 5.0 0.00 0.00 0.00 52 1015.1
20260504021209 52 281 3.0 3.0 0.00 0.00 0.00 52 1015.0
20260504020706 52 209 1.0 2.0 0.00 0.00 0.00 52 1015.1
20260504020201 52 213 0.0 1.0 0.00 0.00 0.00 52 1015.1
20260504015658 53 249 0.0 1.0 0.00 0.00 0.00 50 1015.1
20260504015154 53 232 2.0 3.0 0.00 0.00 0.00 49 1014.9
20260504014650 54 207 2.0 3.0 0.00 0.00 0.00 48 1014.9
20260504014148 54 220 3.0 3.0 0.00 0.00 0.00 47 1015.0
20260504013645 54 216 2.0 2.0 0.00 0.00 0.00 48 1015.1
20260504013142 54 223 5.0 6.0 0.00 0.00 0.00 47 1015.0
20260504012639 54 224 3.0 3.0 0.00 0.00 0.00 48 1015.0
20260504012137 54 235 3.0 5.0 0.00 0.00 0.00 48 1014.8
20260504011633 54 233 3.0 5.0 0.00 0.00 0.00 47 1014.8
20260504011130 54 205 2.0 2.0 0.00 0.00 0.00 48 1014.6
20260504010625 54 228 1.0 2.0 0.00 0.00 0.00 48 1014.8
20260504010116 54 259 2.0 3.0 0.00 0.00 0.00 48 1014.6
20260504005613 54 214 3.0 3.0 0.00 0.00 0.00 48 1014.8
20260504005110 54 239 3.0 5.0 0.00 0.00 0.00 48 1014.6
20260504004608 54 237 1.0 1.0 0.00 0.00 0.00 48 1014.8
20260504004105 54 216 2.0 2.0 0.00 0.00 0.00 48 1014.3
20260504003601 55 268 1.0 2.0 0.00 0.00 0.00 47 1014.4
20260504003058 55 218 2.0 2.0 0.00 0.00 0.00 46 1014.4
20260504002555 56 257 2.0 3.0 0.00 0.00 0.00 45 1014.2
20260504002053 56 257 1.0 1.0 0.00 0.00 0.00 45 1014.1
20260504001550 56 231 1.0 2.0 0.00 0.00 0.00 45 1014.2
20260504001046 56 244 3.0 3.0 0.00 0.00 0.00 44 1013.9
20260504000543 57 214 2.0 3.0 0.00 0.00 0.00 44 1014.1
20260504000040 57 244 2.0 2.0 0.00 0.00 0.00 43 1013.7
20260503235539 57 276 2.0 3.0 0.00 0.00 0.00 43 1013.9
20260503235035 57 253 4.0 5.0 0.00 0.00 0.00 42 1014.1
20260503234533 58 243 4.0 5.0 0.00 0.00 0.00 42 1013.8
20260503234031 58 242 3.0 3.0 0.00 0.00 0.00 42 1013.8
20260503233527 58 290 3.0 3.0 0.00 0.00 0.00 42 1013.7
20260503233023 58 317 5.0 7.0 0.00 0.00 0.00 41 1013.8
20260503232520 59 289 3.0 3.0 0.00 0.00 0.00 40 1013.8
20260503232018 59 271 4.0 5.0 0.00 0.00 0.00 40 1013.7
20260503231516 59 257 4.0 6.0 0.00 0.00 0.00 39 1013.9
20260503231012 60 283 6.0 7.0 0.00 0.00 0.00 39 1013.6
20260503230508 60 325 7.0 8.0 0.00 0.00 0.00 39 1013.6
20260503230006 60 261 3.0 5.0 0.00 0.00 0.00 39 1013.7
20260503225503 60 253 5.0 8.0 0.00 0.00 0.00 39 1013.6
20260503224952 60 312 8.0 13.0 0.00 0.00 0.00 38 1013.5
20260503224449 60 265 5.0 6.0 0.00 0.00 0.00 38 1013.5
20260503223947 59 248 4.0 5.0 0.00 0.00 0.00 39 1013.6
20260503223445 59 294 2.0 3.0 0.00 0.00 0.00 40 1013.6
20260503222940 60 252 5.0 6.0 0.00 0.00 0.00 39 1013.7
20260503222439 60 297 3.0 3.0 0.00 0.00 0.00 39 1013.5
20260503221937 59 282 7.0 8.0 0.00 0.00 0.00 38 1013.7
20260503221435 60 237 4.0 5.0 0.00 0.00 0.00 39 1013.5
20260503220931 60 235 5.0 7.0 0.00 0.00 0.00 37 1013.7
20260503220427 60 303 5.0 6.0 0.00 0.00 0.00 38 1013.6
20260503215925 60 223 7.0 9.0 0.00 0.00 0.00 37 1013.5
20260503215422 60 302 4.0 5.0 0.00 0.00 0.00 36 1013.7
20260503214919 60 313 7.0 10.0 0.00 0.00 0.00 37 1013.6
20260503214417 60 264 5.0 7.0 0.00 0.00 0.00 37 1013.5
20260503213914 61 322 10.0 13.0 0.00 0.00 0.00 35 1013.4
20260503213412 61 275 11.0 14.0 0.00 0.00 0.00 36 1013.4
20260503212908 61 197 4.0 7.0 0.00 0.00 0.00 35 1013.4
20260503212406 60 239 8.0 9.0 0.00 0.00 0.00 36 1013.6
20260503211903 61 299 9.0 13.0 0.00 0.00 0.00 36 1013.5
20260503211359 61 250 4.0 7.0 0.00 0.00 0.00 36 1013.5
20260503210855 61 300 6.0 9.0 0.00 0.00 0.00 35 1013.4
20260503210352 61 290 8.0 10.0 0.00 0.00 0.00 36 1013.5
20260503205847 61 265 4.0 6.0 0.00 0.00 0.00 36 1013.5
20260503205344 61 245 3.0 5.0 0.00 0.00 0.00 36 1013.4
20260503204841 60 247 9.0 11.0 0.00 0.00 0.00 36 1013.7
20260503204338 60 219 8.0 10.0 0.00 0.00 0.00 36 1013.5
20260503203835 60 248 6.0 9.0 0.00 0.00 0.00 36 1013.5
20260503203333 61 251 8.0 11.0 0.00 0.00 0.00 35 1013.5
20260503202829 60 161 2.0 3.0 0.00 0.00 0.00 36 1013.5
20260503202328 60 336 5.0 6.0 0.00 0.00 0.00 38 1013.7
20260503201826 60 301 5.0 6.0 0.00 0.00 0.00 39 1013.6
20260503201322 59 271 9.0 11.0 0.00 0.00 0.00 37 1013.6
20260503200820 60 238 8.0 11.0 0.00 0.00 0.00 37 1013.8
20260503200316 59 255 7.0 9.0 0.00 0.00 0.00 37 1013.7
20260503195813 59 263 7.0 10.0 0.00 0.00 0.00 39 1013.9
20260503195309 59 314 6.0 10.0 0.00 0.00 0.00 38 1013.8